Helicity
44 42 31 27 86 64 79 68 153 97 98 6 -74 -95 -25 7 13 54 88 137 110 86 139 161 178 182 199 210 186 189 193 182 160 151 135 119 103 305
197 99 75 64 35 -44 62 100 115 154 136 133 41 -5 31 -116 -45 31 39 120 111 95 105 153 193 217 241 224 221 226 208 142 125 142 131 159 319 363
122 141 121 187 219 269 285 80 99 -67 -19 23 58 111 91 184 142 53 -40 65 140 105 95 135 197 205 201 221 235 182 163 124 120 146 279 386 410 381
159 207 216 162 192 208 268 344 207 127 174 150 131 62 152 43 86 144 34 125 170 102 72 154 244 331 376 317 255 196 144 163 284 379 345 347 373 325
98 122 151 188 183 155 149 182 198 232 144 130 103 36 48 26 114 77 173 -182 73 124 -2 200 280 315 372 424 272 213 207 213 313 451 439 443 380 364
83 105 112 146 133 156 151 152 147 153 137 127 106 109 106 111 165 167 212 142 315 180 239 207 165 216 163 143 195 282 343 288 472 580 394 429 346 350
39 57 90 124 115 94 67 96 121 126 124 125 146 127 141 170 228 222 183 250 344 308 324 323 342 360 322 353 438 474 471 506 483 306 378 288 309 319
40 42 49 67 89 96 104 95 86 97 128 130 116 143 134 166 187 234 233 260 252 265 294 363 380 368 392 357 359 342 329 282 194 184 351 246 234 219
38 44 40 41 46 52 57 70 99 102 92 90 121 126 125 103 93 89 98 146 196 218 263 271 315 362 312 374 273 329 274 259 253 241 209 215 176 174
45 31 33 50 53 35 22 50 70 79 116 103 95 74 77 63 69 66 66 79 74 107 71 159 172 249 313 229 233 283 249 235 220 193 166 159 109 152
37 39 39 24 39 72 40 8 9 66 78 71 85 70 64 55 63 56 74 89 109 91 120 127 187 216 255 204 163 192 179 141 127 122 110 131 112 138
25 18 33 42 27 13 17 35 26 17 57 69 49 80 90 72 68 79 94 99 104 126 92 163 147 144 228 186 182 161 137 119 97 78 77 68 77 127
42 26 26 24 35 51 46 32 24 40 37 33 60 61 71 115 108 127 124 124 105 111 117 138 138 152 154 114 147 149 146 132 164 172 55 49 71 81
66 58 45 19 21 28 49 54 48 58 52 58 54 71 90 79 128 165 153 136 113 92 92 139 149 164 200 176 138 161 182 154 168 200 180 145 150 145
81 70 -34 -20 -13 17 32 26 53 90 82 61 66 85 100 100 98 112 136 144 146 136 129 143 127 163 168 141 132 167 180 170 165 176 186 181 169 148
84 92 89 11 62 73 81 85 106 106 85 73 67 61 93 99 88 104 115 151 158 177 198 158 139 169 166 152 143 164 179 136 181 171 155 176 209 198
3 82 93 95 84 78 84 106 120 107 99 83 80 65 55 86 85 94 116 141 159 155 175 216 243 239 253 202 213 212 221 200 171 158 213 266 270 234
113 118 115 112 85 73 82 86 87 89 82 86 69 66 57 57 85 100 106 121 157 163 175 161 183 233 253 269 204 196 198 188 162 170 195 257 265 204
118 121 118 117 106 97 96 95 75 77 84 84 57 43 51 56 62 76 93 105 124 147 153 135 140 162 188 176 179 164 180 159 167 199 195 199 190 160
106 112 113 106 98 99 100 88 99 77 53 79 50 49 55 47 51 54 67 69 101 128 144 140 140 144 180 166 198 170 164 128 128 169 190 197 185 172
132 130 131 125 118 116 114 99 99 53 73 52 33 28 29 40 33 27 41 55 96 121 139 147 151 174 192 226 272 233 199 180 144 148 126 152 139 121
164 154 148 150 146 139 130 89 78 51 31 48 32 41 4 26 11 8 20 46 77 123 146 146 151 168 174 257 286 273 258 257 217 131 77 58 40 51
167 177 181 174 154 141 108 87 59 54 35 16 24 36 -11 6 -11 -6 27 71 104 157 162 175 192 201 215 244 252 245 233 181 136 142 124 110 149 157
Wind_Speed
74 76 75 85 84 78 78 82 93 105 105 90 92 85 90 93 96 96 97 97 95 92 92 88 81 75 68 62 60 57 52 55 53 52 49 51 50 30
77 82 73 77 82 78 91 89 94 101 116 98 101 97 97 92 94 103 105 102 102 102 100 95 84 78 69 63 60 57 55 55 56 53 46 35 29 26
80 80 78 80 84 86 82 87 90 93 109 118 109 107 106 99 98 94 96 108 108 106 101 98 89 78 71 68 62 57 55 57 58 47 31 22 25 24
91 91 90 87 87 83 89 93 93 90 91 117 105 100 104 93 97 89 88 95 104 107 111 95 89 81 75 65 60 57 53 49 36 30 30 26 26 22
87 88 88 88 88 87 88 90 85 92 93 101 108 100 102 97 104 93 89 74 73 84 87 82 78 67 66 70 54 41 41 36 30 28 25 26 23 21
82 82 84 84 81 85 84 84 84 87 93 98 101 95 94 95 96 98 87 89 75 70 52 68 62 49 57 49 42 37 30 35 32 24 21 27 23 25
81 80 80 81 79 79 80 84 86 86 87 90 92 89 92 89 88 83 80 85 72 66 68 63 53 55 55 48 38 39 29 29 28 18 13 23 24 27
86 83 81 80 81 82 81 80 79 80 84 84 84 88 85 81 77 80 77 79 74 58 62 64 53 60 50 49 42 26 23 17 18 18 21 23 26 24
85 85 84 80 82 82 81 81 80 79 77 80 86 83 84 78 81 82 78 76 74 60 53 66 52 48 40 37 29 28 27 23 26 25 24 25 26 27
82 83 84 84 81 83 85 86 84 80 79 78 80 82 81 79 77 75 74 75 71 61 50 60 44 41 40 38 33 35 32 31 29 28 28 27 29 28
81 79 80 82 84 86 87 88 86 84 79 79 83 86 85 80 77 74 73 73 74 63 49 50 48 43 41 36 39 28 29 32 32 34 32 35 27 27
83 81 78 80 83 83 86 87 90 85 86 87 86 85 83 83 80 73 68 70 67 66 48 47 45 43 49 45 44 42 41 35 37 40 41 35 25 23
84 83 80 84 88 89 88 86 86 88 86 82 84 81 77 75 73 72 70 66 65 64 53 46 47 46 49 47 46 41 40 41 41 40 31 22 21 21
80 82 86 91 95 94 90 86 84 81 76 75 75 77 76 73 72 72 71 68 67 65 55 47 52 48 47 49 50 40 36 36 36 31 25 22 24 26
61 67 89 93 93 89 85 85 85 78 75 73 72 72 70 73 73 72 69 63 59 58 54 46 51 44 40 43 42 36 31 30 25 24 24 26 24 23
54 56 66 87 75 71 73 69 67 67 73 75 74 73 74 70 68 65 63 59 56 52 46 44 40 36 41 37 35 28 25 29 21 21 21 20 21 22
37 43 47 56 60 59 58 57 58 59 63 68 70 68 67 67 66 62 58 52 53 49 45 37 30 29 30 28 29 24 20 18 17 16 15 17 21 21
63 62 63 64 65 65 64 67 63 62 61 58 62 62 60 56 58 56 49 44 42 36 32 28 24 25 27 31 26 18 19 17 16 14 14 14 19 26
61 57 52 50 49 52 54 57 63 58 53 48 54 56 52 48 50 45 39 34 31 25 22 17 20 22 30 34 25 20 12 11 10 14 16 17 20 24
50 44 42 47 47 47 52 58 51 52 58 48 52 51 45 40 41 38 27 17 14 19 20 20 19 19 14 18 14 15 12 12 13 14 15 18 23 26
56 54 51 51 51 53 55 60 52 62 38 37 52 51 39 29 34 20 16 10 6 8 11 16 16 10 8 7 6 8 11 14 13 14 15 18 19 22
57 58 56 53 52 50 55 65 63 62 61 44 20 44 47 32 21 14 14 15 13 11 10 10 10 9 8 8 11 14 16 18 21 21 21 20 19 21
57 54 47 45 47 46 50 54 61 58 58 57 51 31 47 43 17 17 17 20 23 22 19 17 16 16 16 18 21 20 21 20 22 25 28 30 30 33
Wind_Direction
302 299 293 289 287 292 293 289 291 290 291 288 293 297 293 292 291 289 287 287 287 286 286 285 282 278 275 276 279 282 285 288 293 300 305 308 308 304
311 302 303 303 293 292 286 288 286 286 286 291 288 294 296 301 296 290 288 285 285 285 285 283 280 277 273 273 276 279 283 285 291 298 303 311 307 302
310 312 313 305 303 296 299 292 292 287 288 289 288 289 292 296 297 300 293 288 285 284 282 281 278 274 271 274 276 278 280 285 289 293 298 305 305 301
310 310 308 309 307 307 299 298 297 296 291 291 291 288 292 294 296 302 303 296 287 283 283 277 276 274 273 273 274 275 278 282 286 291 297 303 304 299
312 311 310 309 308 306 302 301 303 298 292 295 294 296 294 293 291 296 297 304 316 291 277 285 269 275 274 278 272 271 271 278 276 287 293 303 305 316
316 314 312 311 312 310 308 308 306 303 298 297 295 298 300 299 292 291 291 289 297 303 290 290 286 285 281 282 290 289 289 276 284 276 288 298 301 314
319 317 316 311 310 311 309 307 306 304 302 300 299 300 300 301 302 302 301 288 289 289 288 295 294 288 289 289 290 285 292 292 289 280 303 297 306 312
320 318 317 314 312 309 309 308 307 303 301 301 300 299 301 304 304 303 304 298 294 296 292 288 292 291 293 288 291 295 294 300 295 303 315 308 307 310
322 318 316 315 313 310 308 308 306 304 301 300 297 298 299 301 302 300 300 300 296 301 301 290 294 291 294 296 295 300 295 296 297 307 312 314 310 310
321 318 316 314 314 312 309 306 305 304 302 300 297 297 298 299 299 299 299 298 297 298 298 294 298 294 300 295 294 296 293 292 298 304 310 312 308 314
323 320 316 314 313 312 310 306 304 303 304 301 298 296 294 295 296 297 295 295 294 294 295 292 294 296 296 297 298 302 300 295 308 306 308 307 310 314
323 319 318 316 314 313 311 310 306 306 305 302 300 298 295 291 290 288 290 290 292 294 296 291 293 293 291 293 290 294 293 299 302 306 306 308 305 316
325 320 318 314 312 310 310 309 308 308 306 304 301 301 299 295 292 289 287 285 286 285 291 290 290 293 294 294 294 295 296 301 305 309 310 314 316 322
331 323 317 311 306 305 307 309 309 310 310 308 305 302 300 297 294 291 288 285 281 282 287 284 289 289 288 290 293 295 297 304 307 311 323 327 325 322
341 335 293 297 299 305 308 306 306 311 311 308 307 304 302 297 293 290 287 285 284 283 283 283 286 288 289 291 292 292 294 308 319 320 325 323 322 333
343 339 334 313 323 323 321 322 322 319 312 307 305 301 297 297 295 292 289 284 280 281 287 284 287 290 289 294 295 291 301 304 315 323 331 336 344 354
309 340 341 340 336 334 333 332 330 327 321 315 310 307 303 298 295 293 290 285 278 277 279 286 290 298 306 304 305 304 307 317 323 336 349 352 359 359
344 342 340 338 335 333 332 330 330 326 324 326 321 314 310 308 302 297 296 289 282 280 277 278 280 288 301 320 322 309 316 320 330 345 357 11 7 21
347 347 347 347 345 342 339 337 332 333 333 334 330 322 321 318 309 306 304 296 289 284 279 280 286 286 286 292 321 348 336 346 24 26 28 31 35 24
354 351 348 348 347 345 341 336 339 339 331 333 329 327 331 330 320 308 317 321 306 289 281 283 289 292 298 301 324 347 2 58 62 54 42 31 28 30
355 352 350 347 344 342 338 332 334 325 346 342 323 320 339 349 326 341 351 1 1 320 300 294 301 324 342 1 355 14 11 24 33 48 49 34 23 18
355 352 351 348 346 343 338 326 322 318 312 330 5 329 312 342 358 19 60 76 65 51 36 31 18 20 21 71 81 73 61 51 40 38 22 19 23 11
355 354 352 351 350 347 343 335 322 318 307 296 303 348 287 289 33 61 65 75 82 81 73 57 49 52 67 83 87 81 76 62 54 45 34 35 41 50